Regional Weather Roundup
Issued by NWS

Home | Current Version | Previous Version | Graphics & Text | Print | Product List | Glossary On
Versions: 1 2 3 4 5 6 7 8 9 10 11 12 13 14 15 16 17 18 19 20 21 22 23 24 25 26 27 28 29 30 31 32 33 34 35 36 37 38 39 40 41 42 43 44 45 46 47 48 49 50
000
ASUS43 KMPX 260101
RWRMN
WEATHER ROUNDUP FOR MINNESOTA
NATIONAL WEATHER SERVICE TWIN CITIES/CHANHASSEN MN
800 PM CDT SAT APR 25 2015


NOTE: "FAIR" INDICATES FEW OR NO CLOUDS BELOW 12,000 FEET WITH NO
SIGNIFICANT WEATHER AND/OR OBSTRUCTIONS TO VISIBILITY. N/A MEANS
CURRENT SKY AND/OR WEATHER CONDITIONS ARE NOT AVAILABLE.

MNZ060>063-068>070-260200-
   Twin Cities Metro

CITY           SKY/WX    TMP DP  RH WIND       PRES   REMARKS
TWIN CITIES    CLEAR     59  20  22 NE9       29.88R
ST PAUL        CLEAR     58  21  24 E5        29.89R
CRYSTAL        CLEAR     59  21  23 E8        29.87R
BLAINE         PTCLDY    57  25  28 E5        29.88R
LAKEVILLE      CLEAR     52  27  37 SE5       29.88R
EDEN PRAIRIE   CLEAR     58  21  24 E8        29.87R
SOUTH ST PAUL  CLEAR     59  20  22 E5        29.88R
LAKE ELMO      FAIR      55  27  33 E3        29.89R
$$
MNZ001>005-007-008-013>017-022>024-027-028-260200-
   Northwest Minnesota

CITY           SKY/WX    TMP DP  RH WIND       PRES   REMARKS
BEMIDJI        CLEAR     52  30  43 SE5       29.95R
HALLOCK        CLEAR     61  28  29 E10       29.93R
ROSEAU         CLEAR     54  34  47 E13       29.96R
WARROAD        CLEAR     48  34  57 NE9       29.98R
THIEF RVR FALL CLEAR     57  30  35 E9        29.95R
CROOKSTON      CLEAR     57  32  38 SE8       29.93R
FOSSTON        CLEAR     57  30  35 E5        29.94R
DETROIT LAKES  CLEAR     55  28  35 SE8       29.94R
MOORHEAD       CLEAR     59  34  38 SE6       29.92R
PARK RAPIDS    CLEAR     56  27  32 SE7       29.94R
MAHNOMEN       FAIR      57  30  35 SE8       29.92R
$$
MNZ006-009>011-018-025>026-260200-
   North Central Minnesota

CITY           SKY/WX    TMP DP  RH WIND       PRES   REMARKS
BAUDETTE       CLEAR     54  29  38 E10       29.98R
FLAG ISLAND    CLEAR     54  30  40 E3        29.98R
INTL FALLS     CLEAR     52  23  32 E5        29.99R
WASKISH        CLEAR     55  30  38 CALM      29.96R
BIG FORK       CLEAR     55  27  33 E5        29.96R
LONGVILLE      CLEAR     54  28  37 CALM      29.95S
GRAND RAPIDS   CLEAR     52  23  32 SE6       29.97R
CRANE LAKE     CLEAR     48  21  34 CALM      30.00R
ORR            CLEAR     52  19  28 CALM      29.96R
COOK           CLEAR     52  19  28 CALM      29.99R
WALKER         FAIR      52  31  44 E6        29.95R
$$
MNZ012-019>021-037-260200-
   Northeast Minnesota

CITY           SKY/WX    TMP DP  RH WIND       PRES   REMARKS
DULUTH         CLEAR     38  17  42 E10       30.01R
ELY            CLEAR     46  16  29 SE6       29.99R
HIBBING        CLEAR     49  11  21 SE9       29.98R
EVELETH        CLEAR     45  12  26 SE8       30.00R
DULUTH HARBOR  CLEAR     37  28  70 NE21      30.03R
TWO HARBORS    CLEAR     41  21  45 E7        30.01S
SILVER BAY     CLEAR     39  16  38 NE5       30.02R
GRAND MARAIS     N/A     36  22  56 CALM      30.04S
G MARAIS ARPRT CLEAR     34  14  44 CALM      30.02R
$$
MNZ029>031-032-039>041-046>048-054>057-064-260200-
   West Central Minnesota

CITY           SKY/WX    TMP DP  RH WIND       PRES   REMARKS
FERGUS FALLS   PTCLDY    55  34  44 SE6       29.92R
WHEATON        CLOUDY    52  43  71 E6        29.93R
MORRIS         CLEAR     54  39  58 E8        29.90R
ALEXANDRIA     CLEAR     53  37  54 E9        29.92R
ELBOW LAKE     FAIR      54  39  57 SE5       29.91R
WADENA         CLEAR     54  28  37 E7        29.93R
GLENWOOD       CLEAR     52  39  62 NE9       29.92R
APPLETON       CLEAR     54  41  62 E7        29.90R
BENSON         PTCLDY    55  37  50 E5        29.90R
ORTONVILLE     CLOUDY    54  43  66 E5        29.90R
MADISON        PTCLDY    55  39  54 E9        29.89R
WILLMAR        FAIR      55  37  50 E7        29.91R
$$
MNZ033>034-036-042>043-049>051-058-059-260200-
   Central Minnesota

CITY           SKY/WX    TMP DP  RH WIND       PRES   REMARKS
ST CLOUD       CLEAR     54  31  41 NE10      29.91R
SAUK CENTRE    FAIR      53  35  50 NE8       29.91R
PAYNESVILLE    CLEAR     52  32  46 N6        29.91R
AITKIN         CLEAR     52  16  24 E8        29.95R
PINE RIVER     CLEAR     52  32  46 SE5       29.98R
BRAINERD       CLEAR     51  28  41 NE10      29.95R
STAPLES        CLEAR     54  25  32 E7        29.94R
LONG PRAIRIE   FAIR      52  32  46 NE7       29.93R
LITTLE FALLS   CLEAR     52  28  40 NE3       29.93R
LITCHFIELD     CLEAR     57  27  30 E5        29.90R
BUFFALO        CLEAR     55  32  41 N12       29.90R
MAPLE LAKE     CLEAR     55  35  46 NE14      29.91R
$$
MNZ037-044-045-052-053-260200-
   East Central Minnesota

CITY           SKY/WX    TMP DP  RH WIND       PRES   REMARKS
PRINCETON      CLEAR     52  30  43 N10       29.92R
MORA           CLEAR     45  23  42 NE9       29.96R
CAMBRIDGE      CLEAR     54  34  47 NE8       29.91R
RUSH CITY      PTCLDY    49  28  44 N9        29.93R
MOOSE LAKE     CLEAR     41  16  36 CALM      29.97R
HINCKLEY       FAIR      45  21  39 NE10      29.95R
CLOQUET        CLEAR     39  10  30 E7        30.00R
MCGREGOR       CLEAR     46  10  23 E12       29.99R
$$
MNZ071>073-080-081-089-090-097-098-260200-
   Southwest Minnesota

CITY           SKY/WX    TMP DP  RH WIND       PRES   REMARKS
MONTEVIDEO     CLEAR     55  39  54 E9        29.90R
GRANITE FALLS  PTCLDY    56  37  49 NE7       29.90R
CANBY          CLOUDY    55  42  61 SE5       29.89R
MARSHALL       CLOUDY    54  37  54 S10       29.89R
REDWOOD FALLS  CLOUDY    57  37  47 SE6       29.88R
OLIVIA         CLEAR     54  32  43 E6        29.88R
WORTHINGTON    CLOUDY    52  37  58 E14G20    29.90R
JACKSON        MOCLDY    52  37  58 E8        29.90R
TRACY          PTCLDY    54  39  57 SE8       29.89R
SLAYTON        CLOUDY    52  37  56 E14       29.90R
$$
MNZ065>067-074>077-082>085-091>093-260200-
   South Central Minnesota

CITY           SKY/WX    TMP DP  RH WIND       PRES   REMARKS
MANKATO        CLEAR     52  37  58 SE6       29.89R
NEW ULM        PTCLDY    54  36  50 SE6       29.89R
ST JAMES       MOCLDY    54  37  54 E8        29.91R
FAIRMONT       MOCLDY    52  36  54 E8        29.89R
GLENCOE        CLEAR     56  28  34 NE3       29.88R
FARIBAULT      CLEAR     55  27  33 E5        29.89R
OWATONNA       PTCLDY    52  36  54 CALM      29.88R
ALBERT LEA     MOCLDY    48  39  71 NE3       29.88R
$$
MNZ078>079-086>088-094>096-260200-
   Southeast Minnesota

CITY           SKY/WX    TMP DP  RH WIND       PRES   REMARKS
ROCHESTER      PTCLDY    50  31  48 NE6       29.88R
RED WING       CLEAR     55  19  24 E3        29.87R
STANTON        CLEAR     56  23  27 E3        29.86S
DODGE CENTER   PTCLDY    50  39  66 E5        29.88R
WINONA         PTCLDY    52  25  35 SE5       29.88R
AUSTIN         PTCLDY    48  37  66 CALM      29.87R
PRESTON        PTCLDY    50  32  50 CALM      29.87R
$$
ABBREVIATIONS USED IN REMARKS
   TC - TEMPERATURES IN CELSIUS
  WCI - WIND CHILL INDEX
   HX - HEAT INDEX
  VSB - VISIBILITY
$$


USA.gov is the U.S. government's official web portal to all federal, state and local government web resources and services.